Tracking 25709 objects as of 23-May-2022
HD Live streaming from Space Station
objects crossing your sky now

COSMOS 2251 DEB

Track COSMOS 2251 DEB now!
10-day predictions


NORAD ID: 38221
Int'l Code: 1993-036BTM
Perigee: 601.4 km
Apogee: 706.1 km
Inclination: 74.0 °
Period: 97.7 minutes
Semi major axis: 7024 km
RCS: 0.0032 m2 (small)
Launch date: June 16, 1993
Source: Commonwealth of Independent States (former USSR) (CIS)
Launch site: PLESETSK MISSILE AND SPACE COMPLEX (PKMTR)

Note: This is SATELLITE DEBRIS
aabbcc
Your satellite tracking list
Your tracking list is empty




NASA's NSSDC Master Catalog

Two Line Element Set (TLE):
1 38221U 93036BTM 22142.79512775  .00019507  00000-0  27983-2 0  9994
2 38221  74.0068 166.7199 0074522 230.2290 129.2305 14.74554615458393
Source of the keplerian elements: AFSPC